Back to catalog

STARLINK-33821

AliveCommunicationsVLEO
NORAD 63859·PAYLOAD·🇺🇸 United States

Launched May 7, 2025 from Cape Canaveral Space Force Station

Loading…

Next Passes (next 24 hours)

TLE

FreshSource: CelesTrak SupGP

Epoch: Sep 14, 2026, 22:57 UTC

1 63859C 25093Z   26257.95673611  .00034485  00000+0  12491-2 0  2579
2 63859  43.0014  89.1523 0001636 271.2212 175.1472 15.27558994    19

Track STARLINK-33821 in real time with AllMySat

Download on the App Store